Location: Goheenville
(40.9070°N, 79.3720°W)
Time: 20:12:02
(UTC-04:00)

Daily predictions for brighter satellites

Satellite Brightness Start Highest point End
(mag) Time Altitude Azimuth Time Altitude Azimuth Time Altitude Azimuth
ATLAS CENTAUR R/B 3.7 19:27:18 10° S 19:31:45 44° ESE 19:44:05 10° NE
Meteor 1-22 Rocket 4.4 19:29:27 10° SSE 19:34:31 45° E 19:39:33 10° NNE
Cosmos 921 Rocket 3.6 19:32:16 10° NNW 19:36:26 61° WSW 19:40:32 10° S
Cosmos 2219 Rocket 3.2 19:31:18 10° SW 19:36:46 53° WNW 19:42:19 10° NNE
Tiangong 2 4.1 19:36:02 10° WSW 19:37:05 11° SW 19:38:07 10° SSW
Cosmos 2233 Rocket 4.1 19:31:53 10° S 19:38:11 86° E 19:44:32 10° N
USA 215 3.4 19:32:37 10° NE 19:39:04 59° SE 19:45:29 10° SSW
HJ-1C 4.4 19:36:22 10° SE 19:39:12 26° ENE 19:42:05 10° NNE
Cosmos 1441 Rocket 3.2 19:35:52 10° N 19:39:37 85° W 19:43:21 10° S
Cosmos 2278 Rocket 2.4 19:34:51 10° NNW 19:40:33 80° WSW 19:46:10 10° SSE
Meteor 2-5 Rocket 3.9 19:35:58 10° NNW 19:41:38 80° W 19:47:11 10° S
Meteor 1-29 4.2 19:40:51 10° NE 19:43:39 22° E 19:46:25 10° SSE
Cosmos 2297 3.9 19:38:34 10° NNW 19:44:10 55° ENE 19:49:40 10° SE
METEOR-M 4.4 19:39:21 10° SE 19:44:27 48° ENE 19:49:35 10° N
Meteor 1-24 Rocket 3.7 19:40:35 10° N 19:46:15 64° ENE 19:51:40 10° SSE
Meteor 1-28 Rocket 3.2 19:42:53 10° NNE 19:46:35 59° E 19:50:14 10° S
Cosmos 1378 3.5 19:44:10 10° N 19:47:44 42° E 19:51:17 10° SSE
Cosmos 1607 4.4 19:42:34 10° SW 19:48:42 65° NW 19:54:49 10° NNE
Cosmos 1707 3.1 19:46:35 10° NNW 19:50:26 69° W 19:54:14 10° S
SJ-6B 2.8 19:47:39 10° SSE 19:51:35 81° ENE 19:55:38 10° N
Cosmos 1076 Rocket 4.1 19:47:49 10° N 19:51:50 36° ENE 19:55:51 10° SE
Cosmos-2242 4.1 19:51:59 10° SE 19:55:30 24° E 19:59:03 10° NE
ATLAS 3B R/B 4.2 19:49:03 10° WSW 19:56:08 40° NW 20:03:02 10° NNE
Cosmos 1452 Rocket 4.2 19:51:54 10° N 19:56:41 33° ENE 20:01:24 10° SE
Cosmos 1758 4.2 19:55:44 10° SSE 19:59:13 28° E 20:02:45 10° NNE
Cosmos 2369 Rocket 4.1 19:56:57 10° NNE 19:59:28 13° NE 20:01:47 10° ENE
Helios 1B rocket 2.6 19:56:23 10° NNE 20:00:22 47° E 20:04:20 10° S
SeaSat 1 3.6 19:59:52 10° ENE 20:03:37 22° ESE 20:07:22 10° SSE
Cosmos 1408 Rocket 3.8 20:00:52 10° N 20:05:04 45° ENE 20:09:13 10° SSE
Resurs 01 Rocket 1.6 20:04:31 10° SSE 20:08:56 69° ENE 20:13:22 10° N
NOSS 3-2 (A) 3.4 20:05:07 10° SSW 20:11:07 74° ESE 20:17:41 10° NE
Okean 3 Rocket 4.1 20:07:02 10° NNW 20:11:34 66° W 20:16:03 10° S
Cosmos 2333 Rocket 3.8 20:06:40 10° SW 20:12:00 37° WNW 20:17:21 10° N
FengYun 1-2 T 4.3 20:06:42 10° SSE 20:12:06 59° ENE 20:17:30 10° N
Resurs 1-3 3.6 20:08:42 10° SSE 20:13:00 58° ENE 20:17:20 10° N
CZ-4B DEB 3.4 20:15:36 22° SE 20:17:07 36° ENE 20:20:09 10° N
Spot 1 4.4 20:14:22 10° S 20:19:11 77° WSW 20:23:46 10° NNW
Atlas Centaur 2 4.1 20:15:48 10° WSW 20:23:13 34° SSW 20:28:59 14° SE
ATLAS CENTAUR R/B 2.5 20:20:13 10° NW 20:24:09 41° WSW 20:27:47 10° S
Meteor 1-21 Rocket 4.3 20:20:25 10° N 20:25:52 53° ENE 20:31:12 10° SSE
ALOS 2.2 20:26:08 10° SSE 20:30:44 63° ENE 20:35:22 10° N
Cosmos 1743 Rocket 3.9 20:27:35 10° N 20:31:49 41° ENE 20:33:29 29° SE
In-Cosmos 22 4.2 20:26:33 10° N 20:32:22 82° E 20:38:07 10° S
Cosmos 1674 3.8 20:29:28 10° NNE 20:32:23 27° ENE 20:32:23 27° ENE
Nadezhda 4 Rocket 4.1 20:26:49 10° N 20:32:59 54° ENE 20:38:48 11° SSE
Cosmos 1269 Rocket 4.4 20:28:22 10° SSE 20:33:12 38° ESE 20:38:03 10° NE
Cosmos 1092 Rocket 4.3 20:32:01 10° N 20:37:54 42° ENE 20:40:56 25° SE
ASTRO E2 4.3 20:35:13 10° SW 20:38:17 21° S 20:38:55 20° SSE
Spot 2 Rocket 4.0 20:33:44 10° S 20:38:41 60° WSW 20:43:41 10° NNW
GP-B 4.1 20:36:09 10° NNE 20:39:11 27° ENE 20:39:11 27° ENE
Cosmos 1048 Rocket 4.5 20:35:16 10° SSE 20:40:06 37° ESE 20:44:55 10° NE
Cosmos 2237 Rocket 4.3 20:35:49 10° WSW 20:40:34 27° NW 20:45:22 10° N
NOSS 3-3 (A) 4.5 20:34:53 10° NW 20:42:24 88° WSW 20:48:48 17° SSE
NOSS 3-3 (C) 4.5 20:34:59 10° NW 20:42:30 89° WSW 20:48:51 18° SSE
OAO 3 Rocket 3.8 20:40:26 10° WSW 20:44:55 40° S 20:46:04 34° SE
Helios 1A 3.9 20:42:47 10° S 20:46:49 48° W 20:50:54 10° NNW
NOSS 3-2 (C) 3.6 20:42:02 10° SW 20:48:06 79° NW 20:54:46 10° NNE
Envisat 4.1 20:50:02 27° ENE 20:50:02 27° ENE 20:53:52 10° N
CZ-4C R/B 4.2 20:45:16 10° W 20:49:55 27° NW 20:55:05 10° NNE
CENTAUR R/B 3.7 20:46:27 10° S 20:48:51 21° SSE 20:48:51 21° SSE
Cosmos 1634 Rocket 4.3 20:49:15 28° SE 20:51:52 41° E 20:57:39 10° NNE
ASTEX 1 3.2 20:47:14 10° N 20:52:11 75° E 20:57:03 10° S
ATLAS 5 CENTAUR R/B 1.8 20:47:29 10° SW 20:52:15 84° NW 20:57:27 10° NNE
CZ-2D R/B 3.2 20:52:09 37° S 20:53:38 88° W 20:57:34 10° NNW
Cosmos 1953 2.8 20:50:46 10° SSW 20:54:42 59° W 20:58:39 10° N
SL-16 R/B 3.5 20:53:35 10° SW 20:58:56 41° WNW 21:04:19 10° N
Cosmos 2034 Rocket 4.5 20:56:52 10° SSW 21:03:01 62° W 21:09:18 10° N
H-2A R/B 4.3 21:14:40 15° NNE 21:14:40 15° NNE 21:15:40 10° NNE
H-2A R/B 3.6 21:12:12 36° SSW 21:13:25 50° W 21:17:14 10° NNW
Cosmos 724 4.4 21:08:47 10° SW 21:14:43 79° WNW 21:20:49 10° NNE
USA 215 4.2 21:15:46 10° NE 21:21:56 46° NNW 21:28:05 10° W
ERS-1 Rocket 3.2 21:34:40 60° N 21:34:40 60° N 21:38:49 10° N
Cosmos 1627 Rocket 4.3 21:30:37 10° N 21:36:50 78° E 21:36:58 78° E
Cosmos 1842 Rocket 4.4 21:39:26 47° WNW 21:39:26 47° WNW 21:43:23 10° N
SeaSat 1 3.3 21:36:34 10° NNE 21:41:20 49° WNW 21:46:05 10° SW
Cosmos 2369 Rocket 2.4 21:38:49 10° NNW 21:43:36 62° N 21:43:36 62° N
Cosmos 839 Rocket 4.1 21:41:31 10° NNW 21:49:15 77° ENE 21:49:20 77° ENE
Cosmos 1943 Rocket 3.5 21:50:42 10° N 21:53:53 29° NNE 21:53:53 29° NNE
Exosat Rocket 4.5 21:59:12 10° NNW 22:05:54 90° ENE 22:06:20 82° SSE
Cosmos 1655 Rocket 4.4 22:07:22 10° NNW 22:12:38 60° NW 22:12:38 60° NW
